DSN-3 (KIRAMEKI-3)

Last updated on Thu Jul 03 2025 00:02:49 GMT+0000 (Coordinated Universal Time)

1 61733U 24198A 25182.80994597 -.00000246 00000+0 00000+0 0 9994 2 61733 0.0185 350.8287 0001227 111.6407 253.2430 1.00270843 2401
UTC large
Height (km)
Speed (km/s)
/
Latitude / Longitude
Inclination (degrees)
Orbital Period (minutes)
Azimuth
Elevation
Range (km)
Doppler Factor

Next 0 passes for location: London (51.5072 / 0.1276)

Sorry there are no passes over London.